Regional Weather Roundup
Issued by NWS

Home | Current Version | Previous Version | Graphics & Text | Print | Product List | Glossary On
Versions: 1 2 3 4 5 6 7 8 9 10 11 12 13 14 15 16 17 18 19 20 21 22 23 24 25 26 27 28 29 30 31 32 33 34 35 36 37 38 39 40 41 42 43 44 45 46 47 48 49 50
000
ASUS43 KDMX 172206
RWRIA

WEATHER ROUNDUP FOR IOWA
NATIONAL WEATHER SERVICE DES MOINES IA
400 PM CST FRI NOV 17 2017

NOTE: "FAIR" INDICATES FEW OR NO CLOUDS BELOW 12,000 FEET WITH NO
SIGNIFICANT WEATHER AND/OR OBSTRUCTIONS TO VISIBILITY.

* - THESE STATIONS ARE NOT NWS STATIONS...THUS NOT UNDER NWS
QUALITY CONTROL.  THEY ALSO DO NOT REPORT WEATHER SUCH
AS PRECIPITATION OR FOG.

IAZ001>003-012>014-020>022-031>034-043>046-172300-
   NORTHWEST IOWA

CITY           SKY/WX    TMP DP  RH WIND       PRES   REMARKS
CARROLL *      CLOUDY    50  50 100 CALM      29.53S FOG
CHEROKEE *     CLEAR     54  46  74 N6        29.52S
DENISON *      CLOUDY    52  52 100 CALM      29.54S FOG
LE MARS *      CLEAR     54  43  66 N8        29.53R
ORANGE CITY *  CLOUDY    54  45  71 N7        29.53R
SHELDON *      PTCLDY    52  41  66 NE13      29.52R
SIOUX CITY     PTCLDY    51  38  60 W5        29.54R
SPENCER        CLEAR     52  44  74 E8        29.53F
STORM LAKE *   CLOUDY    54  48  82 CALM      29.53R
$$

IAZ055>058-069>071-079>083-090>094-172300-
   SOUTHWEST IOWA

CITY           SKY/WX    TMP DP  RH WIND       PRES   REMARKS
ATLANTIC *     CLOUDY    54  54 100 S5        29.52S FOG
AUDUBON *      CLOUDY    54  52  94 CALM      29.53S FOG
CLARINDA *     CLOUDY    57  57 100 CALM        N/A  FOG
COUNCIL BLFS * MOCLDY    57  57 100 NE6       29.50S FOG
CRESTON *      FOG       54  54 100 CALM      29.54R VSB 1/2
HARLAN  *      CLOUDY    54  54 100 CALM      29.55S FOG
LAMONI         FOG       53  53 100 SE9       29.52S VSB 1/4
RED OAK *      CLOUDY    57  57 100 CALM      29.50F FOG
SHENANDOAH *   CLOUDY    61  57  88 E5        29.49F FOG
$$

IAZ047>049-059>061-072>074-084-172300-
   CENTRAL IOWA

CITY           SKY/WX    TMP DP  RH WIND       PRES   REMARKS
AMES           CLOUDY    47  46  97 E6        29.55F FOG
ANKENY *       CLOUDY    50  48  93 SE6       29.55F
BOONE *        CLOUDY    48  46  93 SE6       29.53F FOG
CHARITON *     CLOUDY    54  52  94 S7        29.55R FOG
DES MOINES     CLOUDY    51  49  92 SE6       29.54F FOG
GRINNELL*      CLOUDY    46  42  88 SE9       29.57F
KNOXVILLE *    CLOUDY    52  48  87 S9        29.54S
MARSHALLTOWN   LGT RAIN  44  43  96 SE7       29.56F FOG
NEWTON *       CLOUDY    46  45  93 SE10      29.55F
PELLA *        CLOUDY    49  45  85 SE3       29.57S FOG
PERRY *        CLOUDY    51  50  93 SE5       29.54S
$$

IAZ004>006-015-016-023>025-035-036-172300-
   NORTH CENTRAL IOWA

CITY           SKY/WX    TMP DP  RH WIND       PRES   REMARKS
ALGONA *       FOG       45  45 100 CALM      29.55F VSB 1/2
CLARION *      FOG       45  45 100 SE5       29.56S VSB 1/2
ESTHERVILLE    CLOUDY    44  42  93 E3        29.55S
FORT DODGE *   LGT RAIN  47  46  97 E5        29.55S FOG
MASON CITY     CLOUDY    40  39  97 SE5       29.59S FOG
FOREST CITY *  DRIZZLE   43  43 100 E3        29.57S
WEBSTER CITY * CLOUDY    45  45 100 SE6       29.54R FOG
IOWA FALLS *   CLOUDY    44  43  96 SE3       29.57F FOG
$$

IAZ007>011-017>019-026>030-037>042-050>054-066-172300-
   NORTHEAST IOWA

CITY           SKY/WX    TMP DP  RH WIND       PRES   REMARKS
CEDAR RAPIDS   CLOUDY    43  42  97 S10       29.59F FOG
CHARLES CITY * CLOUDY    39  39 100 SE3       29.60S FOG
CLINTON *      CLOUDY    41  39  93 S12       29.65F FOG
DECORAH *      FOG       37  37 100 S3        29.60F VSB 1
DUBUQUE        CLOUDY    38  37  97 S14       29.63S FOG     WCI  30
MONTICELLO *   FOG       41  39  93 SE7       29.62S VSB 1
OELWEIN *      CLOUDY    39  39 100 SE10      29.59F FOG     WCI  32
WATERLOO       CLOUDY    40  39  97 SE8       29.58F FOG     WCI  34
$$

IAZ064-065-067-068-078-172300-
   EAST CENTRAL IOWA

CITY           SKY/WX    TMP DP  RH WIND       PRES   REMARKS
DAVENPORT      CLOUDY    43  41  93 SE12      29.65F FOG
IOWA CITY      CLOUDY    45  42  89 SE7       29.62F FOG
MT. PLEASANT * CLOUDY    46  41  85 SE14      29.61F HAZE
MUSCATINE *    CLOUDY    45  41  87 SE10G17   29.62F FOG
QUAD CITIES    CLOUDY    45  40  82 SE7       29.63F HAZE
$$

IAZ062-063-075>077-085>089-095>099-172300-
   SOUTHEAST IOWA

CITY           SKY/WX    TMP DP  RH WIND       PRES   REMARKS
BURLINGTON     CLOUDY    47  42  83 SE10      29.62F
FAIRFIELD *    CLOUDY    46  43  87 SE13      29.57F
FORT MADISON * CLOUDY    48  43  81 SE10      29.63S HAZE
KEOKUK *       CLOUDY    50  45  81 SE8       29.61F
OSKALOOSA *    CLOUDY    46  43  91 SE10      29.58R FOG
OTTUMWA        CLOUDY    48  45  89 SE9       29.57S FOG
WASHINGTON *   CLOUDY    46  45  93 S13G18    29.60F
$$

ABBREVIATIONS USED IN REMARKS
   TC - TEMPERATURES IN CELSIUS
  WCI - WIND CHILL INDEX
   HX - HEAT INDEX
  VSB - VISIBILITY
$$





USA.gov is the U.S. government's official web portal to all federal, state and local government web resources and services.